Location: ČR
(50.0000°N, 15.0000°E)
Time: 09:28:58
(UTC+00:00)

S-56A Canister/Altair - Visible Passes

Search period start: 21 October 2021 00:00
Search period end: 31 October 2021 00:00
Orbit: 632 x 2501 km, 38.9° (Epoch: 20 October)

Date Brightness Start Highest point End Pass type
(mag) Time Alt. Az. Time Alt. Az. Time Alt. Az.
21 Oct 10.8 16:58:37 10° W 17:11:41 44° SSW 17:24:59 10° SE visible
21 Oct 11.3 19:05:30 10° W 19:15:52 23° SW 19:25:39 10° S visible
22 Oct 10.8 16:25:28 10° W 16:38:19 45° SSW 16:51:59 10° SE visible
22 Oct 11.3 18:31:47 10° W 18:42:45 26° SW 18:53:23 10° S visible
23 Oct 11.3 17:58:14 10° W 18:09:35 28° SW 18:20:55 10° SSE visible
24 Oct 11.3 17:24:49 10° W 17:36:22 31° SW 17:48:18 10° SSE visible
24 Oct 11.8 19:37:06 10° WSW 19:39:39 11° SW 19:42:11 10° SW visible
25 Oct 11.3 16:51:33 10° W 17:03:08 33° SSW 17:15:32 10° SSE visible
25 Oct 11.7 19:01:12 10° WSW 19:06:42 13° SW 19:12:12 10° SSW visible
26 Oct 11.3 16:18:23 10° W 16:29:53 35° SSW 16:42:38 10° SSE visible
26 Oct 11.7 18:26:39 10° WSW 18:33:43 15° SW 18:40:52 10° SSW visible
27 Oct 11.7 17:52:37 10° W 18:00:40 18° SW 18:09:01 10° SSW visible
28 Oct 11.8 17:18:54 10° W 17:27:36 20° SW 17:36:51 10° S visible
29 Oct 11.8 16:45:26 10° W 16:54:30 22° SW 17:04:26 10° S visible
30 Oct 11.8 16:12:08 10° W 16:21:23 24° SW 16:31:49 10° S visible
